Weather Roundup
Issued by NWS Chicago, IL

Home | Current Version | Previous Version | Text Only | Print | Product List | Glossary On
Versions: 1 2 3 4 5 6 7 8 9 10 11 12 13 14 15 16 17 18 19 20 21 22 23 24 25 26 27 28 29 30 31 32 33 34 35 36 37 38 39 40 41 42 43 44 45 46 47 48 49 50
000
NZUS59 KLOT 290303
HRRLOT

CHICAGO AREA WEATHER ROUNDUP
NATIONAL WEATHER SERVICE CHICAGO/ROMEOVILLE IL
1000 PM CDT WED JUN 28 2017

NOTE: "FAIR" INDICATES FEW OR NO CLOUDS BELOW 12,000 FEET WITH NO
SIGNIFICANT WEATHER AND/OR OBSTRUCTIONS TO VISIBILITY.

* THESE STATIONS ARE NOT UNDER NWS QUALITY CONTROL. THEY ALSO MAY NOT
  REPORT WEATHER SUCH AS PRECIPITATION OR FOG.

ILZ005-006-012>014-019>023-290400-
NORTHEAST ILLINOIS

CITY           SKY/WX    TMP DP  RH WIND       PRES   REMARKS
OHARE          LGT RAIN  74  62  66 N12       29.82R
MIDWAY         TSTM      79  61  53 S21G31    29.80R HX  80
AURORA         CLOUDY    75  64  68 S12       29.80R
LANSING*       CLOUDY    76  60  58 S15G23    29.85R
JOLIET*        RAIN      75  66  75 S12G23    29.81R
WAUKEGAN       LGT RAIN  65  64  97 SW8       29.83R FOG
DUPAGE AIRPORT LGT RAIN  74  64  71 N8        29.82R
WHEELING       TSTM      66  66 100 N12G26    29.86R
MORRIS*        LGT RAIN  73  64  75 S18G25    29.78F
LEWIS AIRPORT* CLOUDY    72  63  73 S18G24    29.80R
$$

WIZ051-052-058>065-066-070>072-290400-
SOUTHEAST WISCONSIN

CITY           SKY/WX    TMP DP  RH WIND       PRES   REMARKS
MILWAUKEE      TSTM      66  64  93 S16G24    29.77F
KENOSHA*       RAIN      65  62  90 SW7       29.83R FOG
RACINE*        RAIN      66  63  90 S9        29.83R
$$

INZ001>003-010>013-019-020-290400-
NORTHWEST INDIANA

CITY           SKY/WX    TMP DP  RH WIND       PRES   REMARKS
GARY*          CLOUDY    79  59  50 S14G28    29.82R HX  80
MICHIGAN CITY* NOT AVBL
RENSSELAER*    NOT AVBL
VALPARAISO     MOCLDY    76  60  57 S15G24    29.86R
$$

LMZ740>746-290400-
SOUTHERN LAKE MICHIGAN

STATION/POSITION TIME  SKY/WX   TEMP WIND        PRES    VSBY
                                AIR  DIR/SP/G
                 (UTC)          (F)  (DEG/KT/KT) (MB)    (MI)
HARRISON CRIB    0240            78  200/ 27/ 30   N/A
BURNHAM HARBOR   0300            78                N/A
CALUMET HARBOR   0230            77  180/ 14/ 21 1008.6R
BURNS HARBOR     0240            76  190/ 19/ 26 1009.8R
MICHIGAN CITY    0240            76  170/ 17/ 23   N/A
$$

ABBREVIATIONS USED IN REMARKS
   TC - TEMPERATURE IN CELSIUS
  WCI - WIND CHILL INDEX
   HX - HEAT INDEX
  VSB - VISIBILITY
$$




USA.gov is the U.S. government's official web portal to all federal, state and local government web resources and services.